Location: Lussas
(44.6119°N, 4.4726°E)
Time: 15:28:53
(UTC+00:00)

Cosmos 990 Rocket - Pass Details

Date: 26 November 2020
Orbit: 748 x 768 km, 74.0° (Epoch: 28 January)

Event Time Altitude Azimuth Distance (km) Brightness Sun altitude
Rises 05:45:51 0° 210° (SSW) 3,212 7.1 -11.8°
Reaches altitude 10° 05:48:14 10° 214° (SSW) 2,293 6.3 -11.4°
Maximum altitude 05:53:23 60° 294° (WNW) 875 4.0 -10.5°
Drops below altitude 10° 05:58:36 10° 14° (NNE) 2,317 6.4 -9.7°
Sets 06:01:01 0° 19° (NNE) 3,248 7.2 -9.3°
